This demonstration page uses our WeatherBlox Daily Observations layout. Learn more.

Left ArrowRight Arrow

41.86663, -103.66717

Hourly Observations for September 7, 2018

Temp ( °F °C ) Dew Point ( °F °C ) Humidity (%) Winds ( mph kmh ) Pressure ( in mb ) Visibility ( mi km ) Precip ( " mm )
12:53 am 00:53 Clear 55 12.8 55 12.8 100 100 ESE 5 7 30.21 1023 10 16 N/A
1:53 am 01:53 Clear 55 12.8 55 12.8 100 100 E 5 7 30.21 1023 10 16 N/A
2:53 am 02:53 Clear 53 11.7 53 11.7 100 100 E 6 9 30.19 1023 10 16 N/A
3:53 am 03:53 Clear 53 11.7 53 11.7 100 100 E 8 13 30.19 1022 10 16 N/A
4:53 am 04:53 Clear 51 10.6 51 10.6 100 100 ESE 3 6 30.19 1023 10 16 N/A
5:53 am 05:53 Clear 51 10.6 51 10.6 100 100 VRB 6 9 30.20 1023 10 16 N/A
6:53 am 06:53 Sunny with Mist and Fog 51 10.6 51 10.6 100 100 E 7 11 30.20 1023 6 10 N/A
7:07 am 07:07 Partly Cloudy with Mist and Fog 52 11.1 52 11.1 100 100 ESE 7 11 30.24 1024 6 10 N/A
7:13 am 07:13 Mostly Cloudy with Mist and Fog 52 11.1 52 11.1 100 100 ESE 7 11 30.24 1024 3 4 N/A
7:15 am 07:15 Mostly Cloudy with Mist and Fog 52 11.1 52 11.1 100 100 ESE 8 13 30.24 1024 1 2 N/A
7:18 am 07:18 Mostly Cloudy with Fog 52 11 52 11 100 100 ESE 8 13 30.24 1024 0 0 N/A
7:53 am 07:53 Mostly Cloudy with Fog 53 11.7 53 11.7 100 100 SE 6 9 30.21 1023 5 8 N/A
8:37 am 08:37 Mostly Cloudy with Fog 54 12.2 54 12.2 100 100 ESE 5 7 30.24 1024 0 0 N/A
8:53 am 08:53 Mostly Cloudy with Fog 55 12.8 55 12.8 100 100 E 3 6 30.23 1024 1 1 N/A
9:08 am 09:08 Cloudy with Mist and Fog 55 13 55 13 100 100 ESE 6 9 30.21 1023 3 4 N/A
9:16 am 09:16 Cloudy with Mist and Fog 55 13 55 13 100 100 ESE 6 9 30.21 1023 6 10 N/A
9:48 am 09:48 Partly Cloudy 61 16 57 14 88 88 E 5 7 30.18 1022 10 16 N/A
9:53 am 09:53 Mostly Sunny 62 16.7 58 14.4 86 86 SE 6 9 30.22 1024 10 16 N/A
10:53 am 10:53 Sunny 69 20.6 59 15 70 70 SE 7 11 30.20 1023 10 16 N/A
11:53 am 11:53 Sunny 74 23.3 58 14.4 57 57 ESE 6 9 30.18 1022 10 16 N/A
12:53 pm 12:53 Sunny 76 24.4 55 12.8 48 48 ESE 8 13 30.16 1021 10 16 N/A
1:53 pm 13:53 Sunny 78 25.6 55 12.8 45 45 E 12 19 30.14 1021 10 16 N/A
2:53 pm 14:53 Sunny 80 26.7 56 13.3 44 44 SE 14 22 30.13 1020 10 16 N/A
3:53 pm 15:53 Sunny 80 26.7 52 11.1 38 38 ESE 8 13 30.11 1020 10 16 N/A
4:53 pm 16:53 Sunny 79 26.1 53 11.7 41 41 ESE 13 20 30.11 1020 10 16 N/A
5:53 pm 17:53 Sunny 78 25.6 54 12.2 43 43 ESE 13 20 30.11 1020 10 16 N/A
6:53 pm 18:53 Sunny 73 22.8 58 14.4 59 59 ESE 12 19 30.13 1020 10 16 N/A
7:53 pm 19:53 Clear 67 19.4 59 15 76 76 undefined N/A 30.14 1021 10 16 N/A
8:53 pm 20:53 Clear 64 17.8 60 15.6 87 87 ESE 9 15 30.16 1022 10 16 N/A
9:53 pm 21:53 Clear 61 16.1 60 15.6 97 97 ESE 8 13 30.16 1022 10 16 N/A
10:53 pm 22:53 Clear 59 15 59 15 100 100 ESE 7 11 30.16 1021 10 16 N/A
11:53 pm 23:53 Clear 57 13.9 57 13.9 100 100 E 7 11 30.14 1021 10 16 N/A

Powered by AerisWeather